星链-3670 (STARLINK-3670 )

导读

STARLINK-3670是美国SpaceX公司星链(Starlink)卫星互联网项目中的一颗卫星,于2022年3月19日发射入轨。星链计划旨在构建覆盖全球的低轨卫星互联网星座,为偏远地区提供高速低延迟宽带服务。STARLINK-3670作为星链组网的组成部分,加入近地轨道星座,助力全球网络覆盖能力提升,截至2026年SpaceX已累计发射超万颗星链卫星。

Basic Information
目录编号:
52106
目录名称:
STARLINK-3670
国际标识:
2022-029U
轨道中心:
EARTH
卫星名称:
星链-3670
卫星全名:
星链-3670 (STARLINK-3670 )
卫星状态:
在轨 (已飞行1638 天)
发射日期:
2022-03-19 UTC
国别 :
美国 (US)
星等 :
--
This satellite is enrolled in the Space Conjunction Data Service (SCDS) and the current flight risk assessment level is: High Risk
Orbit Information
数据来源 国际轨道数据
星历时间: 2026-09-11T22:16:52+0800
17小时前
查看轨道信息
半长轴: 6840.893km
偏心率: 0.0001184
轨道倾角: 53.161°
近地点辐角 82.167°
升交点赤经 319.302°
平近点角 277.947°
近地点: 461.946km
远地点: 463.566km
周期: 93.849分钟
每日圈数: 15.343823
Detailed Information
固有亮度:
5
最大亮度:
2.5
卫星平台:
Starlink v1.5
覆盖范围:
全球
运营商:
太空探索技术公司
运营商所在国:
美国
制造商(研发单位):
太空探索技术公司
制造商所在国:
美国
使用方式:
暂无
Satellite Introduction
星链(Starlink)计划是由太空探索技术公司(SpaceX)提出的一个巨型低轨卫星互联网星座项目,计划在2019年至2024年间在太空搭建由约1.2万颗卫星组成的“星链”网络,其中1584颗将部署在地球上空550千米处的近地轨道,并从2020年开始工作。该卫星仍在工作。
2D Orbit Map
3D Orbit Map
Orbit Altitude Analysis Chart
Orbit Inclination Analysis Chart
Orbit Comprehensive Analysis Chart
View Comprehensive Chart
Conjunction Data List
Event ID Objects TCA Miss Dist (km) Collision Risk Probability Collision Risk Index (CRI) Action
CDM_260914-012405-210606-474922
2026-09-14T
01:24:22+0000
0.609 km
远距离
8.253754E-5 中风险 0.73
CDM_260914-113405-210606-474921
2026-09-14T
11:34:02+0000
0.943 km
远距离
2.085233E-5 中风险 0.61
CDM_260914-041905-210606-872621
2026-09-14T
04:19:04+0000
1.494 km
极远距离
4.177061E-6 低风险 0.47
CDM_260913-115405-210605-866121
2026-09-13T
11:54:32+0000
1.664 km
极远距离
3.52191E-6 低风险 0.46
CDM_260913-194305-210606-872621
2026-09-13T
19:43:12+0000
1.599 km
极远距离
3.386464E-6 低风险 0.46
CDM_260913-180905-210606-872622
2026-09-13T
18:09:25+0000
1.672 km
极远距离
2.958566E-6 低风险 0.44
CDM_260914-130705-210606-474921
2026-09-14T
13:07:49+0000
2.403 km
极远距离
1.280322E-6 低风险 0.37
CDM_260913-235005-210606-474921
2026-09-13T
23:50:35+0000
2.926 km
极远距离
9.507344E-7 极低风险 0.35
CDM_260914-025805-210606-474922
2026-09-14T
02:58:10+0000
2.939 km
极远距离
9.458018E-7 极低风险 0.35
Miss Distance Evolution Trend with All Objects
Collision Probability Evolution Trend with All Objects